Tracking 18840 objects as of 18-November-2017
HD Live streaming from Space Station
objects crossing your sky now

FENGYUN 1C DEB

Track FENGYUN 1C DEB now!
10-day predictions


NORAD ID: 30213
Int'l Code: 1999-025VW
Perigee: 844.3 km
Apogee: 955.3 km
Inclination: 99.2 °
Period: 102.8 minutes
Semi major axis: 7270 km
RCS: 0.054 m2 (small)
Launch date: May 10, 1999
Source: People's Republic of China (PRC)
Launch site: Taiyaun Space Center, China (TSC)

Note: This is SATELLITE DEBRIS
aabbcc
Your satellite tracking list
Your tracking list is empty




NASA's NSSDC Master Catalog

Two Line Element Set (TLE):
1 30213U 99025VW  17321.56206958 +.00000507 +00000-0 +36416-3 0  9994
2 30213 099.2498 317.8952 0076318 103.5072 025.2274 14.00316329551710
Source of the keplerian elements: AFSPC